Date String (YYYY-MM-DD hh:mm:ss) UTC,Instrument flags,Ambient pressure (hPa),Sample flow (lpm),Bypass flow (lpm),Sample temperature (°C),Ambient temperature (°C),ASC tube jacket temperature (°C),LED temperature (°C),Box temperature (°C),Sample RH (%),Span deviation,Mass concentration (μg/m³),Mass concentration (μg/m³),Mass concentration (μg/m³)
DateTimeUTC,F1_M11,P_M11,Q1_M11,Q2_M11,T1_M11,T2_M11,T3_M11,T4_M11,T5_M11,U1_M11,ZSPAN_M11,X0_M11,X2_M11,X1_M11
2022-10-31 02:00:00,,0825.5,5.01,0.00,29.3,27.6,00.0,38.3,31.0,07.7,0000.0,0009.50,0004.95,0004.60
2022-10-31 02:01:00,,0825.4,5.01,0.00,29.3,27.6,00.0,38.3,31.0,07.7,0000.0,0009.53,0004.94,0004.59
2022-10-31 02:02:00,,0825.4,4.98,0.00,29.3,27.6,00.0,38.3,31.0,07.7,0000.0,0009.64,0004.89,0004.57
2022-10-31 02:03:00,,0825.4,5.01,0.00,29.3,27.6,00.0,38.3,31.0,07.6,0000.0,0009.42,0004.87,0004.56
2022-10-31 02:04:00,,0825.4,5.01,0.00,29.3,27.6,00.0,38.2,31.0,07.7,0000.0,0009.54,0004.88,0004.55
2022-10-31 02:05:00,,0825.4,4.98,0.00,29.3,27.6,00.0,38.2,31.0,07.6,0000.0,0009.47,0004.88,0004.55
2022-10-31 02:06:00,,0825.4,5.00,0.00,29.3,27.6,00.0,38.2,31.0,07.6,0000.0,0010.03,0004.89,0004.56
2022-10-31 02:07:00,,0825.4,5.00,0.00,29.3,27.6,00.0,38.2,31.0,07.6,0000.0,0010.06,0004.90,0004.57
2022-10-31 02:08:00,,0825.4,5.00,0.00,29.3,27.6,00.0,38.2,31.0,07.6,0000.0,0009.80,0004.90,0004.58
2022-10-31 02:09:00,,0825.5,4.99,0.00,29.3,27.5,00.0,38.2,31.0,07.6,0000.0,0009.63,0004.92,0004.59
2022-10-31 02:10:00,,0825.4,5.01,0.00,29.3,27.5,00.0,38.2,31.0,07.6,0000.0,0009.61,0004.93,0004.59
2022-10-31 02:11:00,,0825.5,5.00,0.00,29.2,27.5,00.0,38.2,31.0,07.6,0000.0,0009.59,0004.92,0004.59
2022-10-31 02:12:00,,0825.4,5.00,0.00,29.2,27.5,00.0,38.2,31.0,07.7,0000.0,0009.73,0004.92,0004.59
2022-10-31 02:13:00,,0825.5,5.00,0.00,29.2,27.5,00.0,38.2,30.9,07.8,0000.0,0009.52,0004.94,0004.59
2022-10-31 02:14:00,,0825.5,5.00,0.00,29.2,27.5,00.0,38.2,30.9,07.8,0000.0,0009.44,0004.93,0004.57
2022-10-31 02:15:00,,0825.5,5.00,0.00,29.2,27.5,00.0,38.1,30.8,07.8,0000.0,0009.35,0004.92,0004.56
2022-10-31 02:16:00,,0825.5,5.00,0.00,29.2,27.5,00.0,38.1,30.8,07.8,0000.0,0009.12,0004.92,0004.54
2022-10-31 02:17:00,,0825.4,5.00,0.00,29.2,27.5,00.0,38.1,30.9,07.8,0000.0,0008.67,0004.91,0004.53
2022-10-31 02:18:00,,0825.4,4.99,0.00,29.2,27.4,00.0,38.1,30.9,07.8,0000.0,0008.42,0004.89,0004.51
2022-10-31 02:19:00,,0825.4,5.01,0.00,29.2,27.4,00.0,38.1,30.9,07.8,0000.0,0008.31,0004.86,0004.49
2022-10-31 02:20:00,,0825.4,4.99,0.00,29.2,27.4,00.0,38.1,30.8,07.6,0000.0,0008.14,0004.81,0004.46
2022-10-31 02:21:00,,0825.4,5.00,0.00,29.1,27.4,00.0,38.1,30.9,07.6,0000.0,0008.14,0004.80,0004.45
2022-10-31 02:22:00,,0825.4,5.00,0.00,29.1,27.4,00.0,38.1,30.9,07.6,0000.0,0008.15,0004.80,0004.45
2022-10-31 02:23:00,,0825.4,5.01,0.00,29.1,27.4,00.0,38.1,30.9,07.6,0000.0,0008.00,0004.79,0004.47
2022-10-31 02:24:00,,0825.4,5.00,0.00,29.1,27.4,00.0,38.1,30.9,07.6,0000.0,0007.82,0004.78,0004.48
2022-10-31 02:25:00,,0825.4,5.00,0.00,29.1,27.4,00.0,38.1,30.9,07.8,0000.0,0007.77,0004.77,0004.48
2022-10-31 02:26:00,,0825.4,5.00,0.00,29.1,27.4,00.0,38.1,30.9,07.8,0000.0,0007.77,0004.76,0004.47
2022-10-31 02:27:00,,0825.3,5.00,0.00,29.1,27.4,00.0,38.0,30.9,07.7,0000.0,0007.64,0004.76,0004.48
2022-10-31 02:28:00,,0825.4,5.00,0.00,29.1,27.4,00.0,38.0,30.8,07.8,0000.0,0008.15,0004.75,0004.48
2022-10-31 02:29:00,,0825.4,5.00,0.00,29.1,27.3,00.0,38.0,30.8,07.9,0000.0,0008.35,0004.76,0004.48
2022-10-31 02:30:00,,0825.3,5.00,0.00,29.1,27.3,00.0,38.0,30.8,07.9,0000.0,0008.43,0004.77,0004.48
2022-10-31 02:31:00,,0825.4,5.00,0.00,29.1,27.3,00.0,38.0,30.7,08.0,0000.0,0008.53,0004.79,0004.46
2022-10-31 02:32:00,,0825.4,5.02,0.00,29.0,27.3,00.0,38.0,30.7,08.0,0000.0,0008.52,0004.78,0004.44
2022-10-31 02:33:00,,0825.4,4.99,0.00,29.0,27.3,00.0,38.0,30.8,08.0,0000.0,0008.46,0004.76,0004.42
2022-10-31 02:34:00,,0825.4,4.99,0.00,29.0,27.3,00.0,38.0,30.8,08.1,0000.0,0008.54,0004.76,0004.39
2022-10-31 02:35:00,,0825.4,4.99,0.00,29.0,27.3,00.0,38.0,30.8,08.2,0000.0,0008.55,0004.74,0004.34
2022-10-31 02:36:00,,0825.3,5.00,0.00,29.0,27.3,00.0,38.0,30.8,08.0,0000.0,0008.60,0004.74,0004.33
2022-10-31 02:37:00,,0825.4,5.00,0.00,29.0,27.3,00.0,37.9,30.8,08.1,0000.0,0008.52,0004.73,0004.34
2022-10-31 02:38:00,,0825.4,5.00,0.00,29.0,27.3,00.0,37.9,30.7,08.4,0000.0,0008.48,0004.68,0004.30
2022-10-31 02:39:00,,0825.4,5.00,0.00,29.0,27.2,00.0,37.9,30.7,08.4,0000.0,0007.87,0004.64,0004.26
2022-10-31 02:40:00,,0825.4,4.99,0.00,29.0,27.2,00.0,37.9,30.7,08.4,0000.0,0007.57,0004.60,0004.23
2022-10-31 02:41:00,,0825.4,5.02,0.00,29.0,27.2,00.0,37.9,30.7,08.4,0000.0,0007.42,0004.56,0004.20
2022-10-31 02:42:00,,0825.4,5.00,0.00,29.0,27.2,00.0,37.9,30.7,08.5,0000.0,0007.15,0004.47,0004.15
2022-10-31 02:43:00,,0825.4,5.00,0.00,29.0,27.2,00.0,37.9,30.7,08.8,0000.0,0007.79,0004.38,0004.09
2022-10-31 02:44:00,,0825.4,5.00,0.00,28.9,27.2,00.0,37.9,30.7,08.9,0000.0,0007.80,0004.29,0004.01
2022-10-31 02:45:00,,0825.4,4.99,0.00,28.9,27.2,00.0,37.9,30.7,08.7,0000.0,0007.80,0004.21,0003.95
2022-10-31 02:46:00,,0825.4,5.00,0.00,28.9,27.2,00.0,37.9,30.7,08.4,0000.0,0007.83,0004.18,0003.93
2022-10-31 02:47:00,,0825.4,5.00,0.00,28.9,27.1,00.0,37.8,30.6,08.4,0000.0,0007.73,0004.13,0003.90
2022-10-31 02:48:00,,0825.4,5.02,0.00,28.9,27.1,00.0,37.8,30.6,08.3,0000.0,0007.74,0004.11,0003.86
2022-10-31 02:49:00,,0825.4,5.00,0.00,28.9,27.1,00.0,37.8,30.5,08.6,0000.0,0007.66,0004.07,0003.83
2022-10-31 02:50:00,,0825.4,4.99,0.00,28.8,27.1,00.0,37.8,30.5,08.9,0000.0,0007.64,0004.03,0003.78
2022-10-31 02:51:00,,0825.4,5.00,0.00,28.8,27.0,00.0,37.8,30.5,08.8,0000.0,0007.61,0003.98,0003.73
2022-10-31 02:52:00,,0825.4,5.03,0.00,28.8,27.0,00.0,37.8,30.5,08.4,0000.0,0007.66,0003.97,0003.71
2022-10-31 02:53:00,,0825.4,5.00,0.00,28.8,27.0,00.0,37.8,30.6,08.3,0000.0,0007.72,0003.99,0003.70
2022-10-31 02:54:00,,0825.3,5.00,0.00,28.8,27.1,00.0,37.8,30.6,08.4,0000.0,0007.06,0004.03,0003.72
2022-10-31 02:55:00,,0825.4,4.98,0.00,28.8,27.1,00.0,37.8,30.5,08.8,0000.0,0007.04,0004.05,0003.73
2022-10-31 02:56:00,,0825.4,5.01,0.00,28.8,27.0,00.0,37.8,30.5,08.1,0000.0,0006.85,0004.05,0003.73
2022-10-31 02:57:00,,0825.4,5.01,0.00,28.8,27.0,00.0,37.7,30.5,07.7,0000.0,0006.91,0004.12,0003.77
2022-10-31 02:58:00,,0825.4,4.98,0.00,28.8,27.0,00.0,37.7,30.4,07.6,0000.0,0007.00,0004.16,0003.81
2022-10-31 02:59:00,,0825.4,5.00,0.00,28.8,27.0,00.0,37.7,30.5,08.3,0000.0,0007.08,0004.20,0003.83
